Location: Camp Roosevelt
(41.7914°N, 81.1673°W)
Time: 18:48:41
(UTC+00:00)

CZ-4B R/B - Pass Details

Date: 29 October 2020
Orbit: 389 x 462 km, 97.6° (Epoch: 23 November)

Event Time Altitude Azimuth Distance (km) Brightness Sun altitude
Rises 23:21:22 0° 6° (N) 2,375 4.9 -11.6°
Reaches altitude 10° 23:23:27 10° 359° (N) 1,493 4.0 -12.0°
Maximum altitude 23:26:30 44° 286° (WNW) 577 2.4 -12.5°
Drops below altitude 10° 23:29:27 10° 213° (SSW) 1,447 4.5 -13.1°
Sets 23:31:26 0° 207° (SSW) 2,290 5.5 -13.4°
